Powrót do katalogu

STARLINK-30151

AktywnyŁącznośćVLEO
NORAD 56827·PAYLOAD·🇺🇸 United States

Wystrzelony Jun 4, 2023 z Cape Canaveral Space Force Station

Loading…

Następne Przeloty (najbliższe 24 godziny)

TLE

ŚwieżeSource: CelesTrak SupGP

Epoka: Sep 14, 2026, 21:33 UTC

1 56827C 23079E   26257.89840278 -.00043381  00000+0 -15716-2 0  2576
2 56827  43.0004 118.5067 0001457 271.8533 141.5859 15.27593223    18

Śledź STARLINK-30151 w czasie rzeczywistym z AllMySat

Download on the App Store